Retour au catalogue

TDRS 7

ActifCommunicationsGEO
NORAD 23613·PAYLOAD·🇺🇸 United States

Lancé Jul 13, 1995 depuis Cape Canaveral Space Force Station

Loading…

TLE

FraisSource: Space-Track

Époque: Sep 13, 2026, 16:51 UTC

1 23613U 95035B   26256.70253163 -.00000248  00000-0  00000-0 0  9990
2 23613  13.3011 347.5707 0011180  99.0854 248.2000  1.00273729114132

Suivez TDRS 7 en temps réel avec AllMySat

Download on the App Store